FW3222 Weather Reports


Display with metric or nautical units.
time (UTC)temp
F
wind
direction
speed
MPH
gust
MPH
rain 1hr
in
rain 24hr
in
rain mn
in
humidity
%
barometer
mb
20260905130648 72 355 0.0 5.0 0.00 0.00 0.00 60 1013.2
20260905130353 72 305 0.0 5.0 0.00 0.00 0.00 60 1013.1
20260905130049 72 84 1.0 5.0 0.00 0.00 0.00 60 1013.0
20260905125743 72 111 1.0 5.0 0.00 0.00 0.00 60 1013.1
20260905125435 71 96 1.0 5.0 0.00 0.00 0.00 60 1013.0
20260905125127 71 98 0.0 5.0 0.00 0.00 0.00 60 1012.8
20260905124404 71 48 0.0 1.0 0.00 0.00 0.00 61 1013.0
20260905124108 71 42 0.0 0.0 0.00 0.00 0.00 60 1012.8
20260905123346 71 74 0.0 0.0 0.00 0.00 0.00 60 1012.8
20260905123034 71 98 0.0 0.0 0.00 0.00 0.00 61 1012.8
20260905122733 71 97 0.0 0.0 0.00 0.00 0.00 60 1012.8
20260905122435 71 97 0.0 0.0 0.00 0.00 0.00 60 1012.8
20260905122136 71 97 0.0 0.0 0.00 0.00 0.00 60 1012.8
20260905121826 71 97 0.0 0.0 0.00 0.00 0.00 60 1012.8
20260905121056 71 24 0.0 0.0 0.00 0.00 0.00 61 1012.8
20260905120757 71 24 0.0 0.0 0.00 0.00 0.00 61 1012.8
20260905120457 71 24 0.0 0.0 0.00 0.00 0.00 60 1012.8
20260905115733 71 331 0.0 0.0 0.00 0.00 0.00 61 1012.7
20260905115432 71 331 0.0 0.0 0.00 0.00 0.00 61 1012.7
20260905115135 71 331 0.0 0.0 0.00 0.00 0.00 61 1012.6
20260905114823 70 313 0.0 0.0 0.00 0.00 0.00 61 1012.5
20260905114522 70 39 0.0 0.0 0.00 0.00 0.00 61 1012.5
20260905114223 70 38 0.0 0.0 0.00 0.00 0.00 61 1012.5
20260905113923 70 38 0.0 0.0 0.00 0.00 0.00 61 1012.6
20260905113617 70 38 0.0 0.0 0.00 0.00 0.00 61 1012.6
20260905112842 70 5 0.0 0.0 0.00 0.00 0.00 61 1012.5
20260905112541 70 12 0.0 0.0 0.00 0.00 0.00 61 1012.5
20260905112243 70 322 0.0 0.0 0.00 0.00 0.00 61 1012.5
20260905111935 70 0 0.0 0.0 0.00 0.00 0.00 61 1012.5
20260905111627 70 331 0.0 0.0 0.00 0.00 0.00 61 1012.5
20260905111325 70 331 0.0 0.0 0.00 0.00 0.00 61 1012.5
20260905111015 70 338 0.0 2.0 0.00 0.00 0.00 61 1012.4
20260905110719 70 319 0.0 1.0 0.00 0.00 0.00 60 1012.5
20260905110001 70 21 0.0 2.0 0.00 0.00 0.00 60 1012.4
20260905105658 70 42 0.0 2.0 0.00 0.00 0.00 60 1012.4
20260905105402 70 96 0.0 2.0 0.00 0.00 0.00 60 1012.3
20260905105055 70 25 0.0 0.0 0.00 0.00 0.00 60 1012.3
20260905104757 70 25 0.0 0.0 0.00 0.00 0.00 60 1012.4
20260905104453 70 38 0.0 0.0 0.00 0.00 0.00 60 1012.3
20260905104148 70 43 0.0 0.0 0.00 0.00 0.00 60 1012.2
20260905103850 70 89 0.0 0.0 0.00 0.00 0.00 60 1012.1
20260905103548 70 103 0.0 5.0 0.00 0.00 0.00 60 1012.1
20260905103248 70 92 0.0 3.0 0.00 0.00 0.00 60 1012.2
20260905102935 70 85 0.0 2.0 0.00 0.00 0.00 61 1012.1
20260905102634 70 92 0.0 0.0 0.00 0.00 0.00 61 1012.1
20260905100549 71 78 0.0 0.0 0.00 0.00 0.00 61 1012.0
20260905100250 71 78 0.0 0.0 0.00 0.00 0.00 61 1011.9
20260905095951 71 78 0.0 0.0 0.00 0.00 0.00 61 1012.0
20260905095643 71 79 0.0 0.0 0.00 0.00 0.00 61 1011.8
20260905094502 71 121 0.0 7.0 0.00 0.00 0.00 61 1011.9
20260905094155 71 12 0.0 7.0 0.00 0.00 0.00 61 1011.8
20260905093007 72 9 0.0 7.0 0.00 0.00 0.00 61 1011.7
20260905092700 72 189 0.0 3.0 0.00 0.00 0.00 62 1011.8
20260905091928 72 12 0.0 4.0 0.00 0.00 0.00 62 1011.9
20260905091622 72 346 0.0 4.0 0.00 0.00 0.00 62 1011.8
20260905090900 72 76 1.0 4.0 0.00 0.00 0.00 62 1011.7
20260905090552 72 95 1.0 4.0 0.00 0.00 0.00 62 1011.7
20260905090254 72 29 1.0 4.0 0.00 0.00 0.00 62 1011.6
20260905085954 73 117 1.0 3.0 0.00 0.00 0.00 63 1011.7
20260905085640 73 55 1.0 3.0 0.00 0.00 0.00 63 1011.7
20260905085327 73 90 1.0 3.0 0.00 0.00 0.00 63 1011.6
20260905085024 73 82 1.0 3.0 0.00 0.00 0.00 63 1011.5
20260905083900 73 73 0.0 3.0 0.00 0.00 0.00 64 1011.4
20260905083550 73 37 0.0 2.0 0.00 0.00 0.00 64 1011.5
20260905083251 73 48 0.0 2.0 0.00 0.00 0.00 64 1011.5
20260905082941 73 82 0.0 2.0 0.00 0.00 0.00 64 1011.4
20260905082632 73 82 0.0 2.0 0.00 0.00 0.00 64 1011.4
20260905082321 73 93 0.0 2.0 0.00 0.00 0.00 64 1011.4
20260905082016 73 64 0.0 0.0 0.00 0.00 0.00 64 1011.4
20260905081238 73 45 0.0 0.0 0.00 0.00 0.00 64 1011.5
20260905080941 73 53 0.0 0.0 0.00 0.00 0.00 64 1011.5
20260905080633 73 84 0.0 0.0 0.00 0.00 0.00 64 1011.6
20260905080334 73 90 0.0 0.0 0.00 0.00 0.00 64 1011.6
20260905080020 73 95 0.0 1.0 0.00 0.00 0.00 64 1011.6
20260905075722 73 70 0.0 1.0 0.00 0.00 0.00 64 1011.6
20260905075415 73 69 0.0 1.0 0.00 0.00 0.00 64 1011.7
20260905075105 73 128 0.0 1.0 0.00 0.00 0.00 64 1011.6
20260905074342 73 86 0.0 0.0 0.00 0.00 0.00 63 1011.7
20260905074040 73 127 0.0 0.0 0.00 0.00 0.00 63 1011.7
20260905073733 73 127 0.0 0.0 0.00 0.00 0.00 63 1011.7
20260905072156 73 183 0.0 0.0 0.00 0.00 0.00 63 1011.6
20260905071856 73 183 0.0 0.0 0.00 0.00 0.00 63 1011.7
20260905071136 73 213 0.0 0.0 0.00 0.00 0.00 63 1011.9
20260905070822 73 213 0.0 0.0 0.00 0.00 0.00 63 1011.9
20260905070516 73 213 0.0 0.0 0.00 0.00 0.00 63 1011.8
20260905070213 74 213 0.0 0.0 0.00 0.00 0.00 63 1011.8
20260905065914 74 222 0.0 0.0 0.00 0.00 0.00 63 1011.9
20260905065614 74 219 0.0 0.0 0.00 0.00 0.00 63 1011.8
20260905065311 74 228 0.0 2.0 0.00 0.00 0.00 63 1011.9
20260905065005 74 228 0.0 2.0 0.00 0.00 0.00 63 1011.9
20260905064657 74 264 0.0 2.0 0.00 0.00 0.00 63 1012.0
20260905063937 74 267 0.0 0.0 0.00 0.00 0.00 63 1012.0
20260905063634 74 209 0.0 0.0 0.00 0.00 0.00 63 1011.9
20260905062901 74 199 0.0 0.0 0.00 0.00 0.00 63 1012.1
20260905062131 74 236 0.0 0.0 0.00 0.00 0.00 63 1012.1
20260905061827 74 236 0.0 0.0 0.00 0.00 0.00 63 1012.1
20260905061514 74 208 0.0 0.0 0.00 0.00 0.00 63 1012.1
20260905061216 74 236 0.0 0.0 0.00 0.00 0.00 63 1012.0
20260905060904 74 236 0.0 0.0 0.00 0.00 0.00 63 1012.1
20260905060558 74 236 0.0 0.0 0.00 0.00 0.00 63 1012.1
20260905055832 74 236 0.0 0.0 0.00 0.00 0.00 63 1012.2
20260905055523 74 236 0.0 0.0 0.00 0.00 0.00 63 1012.2
20260905055213 74 236 0.0 0.0 0.00 0.00 0.00 63 1012.3
20260905054910 74 234 0.0 0.0 0.00 0.00 0.00 63 1012.4
20260905054600 74 234 0.0 0.0 0.00 0.00 0.00 63 1012.4
20260905054248 74 234 0.0 0.0 0.00 0.00 0.00 63 1012.3
20260905053952 74 278 0.0 0.0 0.00 0.00 0.00 63 1012.4
20260905051941 74 281 0.0 2.0 0.00 0.00 0.00 62 1012.7
20260905051635 74 306 0.0 0.0 0.00 0.00 0.00 62 1012.7
20260905051322 74 317 0.0 2.0 0.00 0.00 0.00 62 1012.7
20260905051009 74 242 0.0 0.0 0.00 0.00 0.00 62 1012.8
20260905050711 74 5 0.0 6.0 0.00 0.00 0.00 62 1012.9
20260905050405 74 63 0.0 6.0 0.00 0.00 0.00 62 1012.9
20260905050058 75 248 1.0 6.0 0.00 0.00 0.00 62 1013.0
20260905045756 74 13 1.0 6.0 0.00 0.00 0.00 63 1013.0
20260905045456 75 334 1.0 5.0 0.00 0.00 0.00 63 1013.0
20260905045158 74 293 0.0 5.0 0.00 0.00 0.00 63 1013.1
20260905044434 74 16 0.0 3.0 0.00 0.00 0.00 63 1013.0
20260905044136 74 0 0.0 3.0 0.00 0.00 0.00 63 1013.0
20260905043839 74 21 0.0 2.0 0.00 0.00 0.00 63 1012.9
20260905043532 74 18 0.0 2.0 0.00 0.00 0.00 63 1012.8
20260905043233 74 292 0.0 2.0 0.00 0.00 0.00 63 1012.9
20260905042923 74 325 0.0 0.0 0.00 0.00 0.00 63 1012.8
20260905042626 74 325 0.0 0.0 0.00 0.00 0.00 63 1012.8
20260905042326 74 202 0.0 0.0 0.00 0.00 0.00 63 1012.8
20260905042022 74 201 0.0 0.0 0.00 0.00 0.00 63 1012.8
20260905041721 74 202 0.0 0.0 0.00 0.00 0.00 63 1012.7
20260905041417 74 202 0.0 0.0 0.00 0.00 0.00 63 1012.7
20260905041120 74 200 0.0 0.0 0.00 0.01 0.00 63 1012.8
20260905040820 74 190 0.0 0.0 0.00 0.01 0.00 63 1012.9
20260905040512 74 190 0.0 0.0 0.00 0.01 0.00 63 1012.8
20260905040159 74 221 0.0 0.0 0.00 0.01 0.00 63 1012.8
20260905035853 74 177 0.0 0.0 0.00 0.01 0.01 63 1012.9
20260905035542 74 199 0.0 0.0 0.00 0.01 0.01 63 1012.9
20260905035242 74 174 0.0 0.0 0.00 0.01 0.01 63 1012.9
20260905034929 74 174 0.0 0.0 0.00 0.01 0.01 63 1012.9
20260905034632 74 174 0.0 0.0 0.00 0.01 0.01 63 1013.0
20260905034319 74 159 0.0 0.0 0.00 0.01 0.01 63 1013.0
20260905034006 74 130 0.0 0.0 0.00 0.01 0.01 63 1012.9
20260905033703 74 105 0.0 0.0 0.00 0.01 0.01 63 1012.8
20260905033359 74 105 0.0 0.0 0.00 0.01 0.01 63 1012.8
20260905033058 74 105 0.0 0.0 0.00 0.01 0.01 63 1012.7
20260905032745 74 202 0.0 0.0 0.00 0.01 0.01 63 1012.8
20260905032433 74 195 0.0 0.0 0.00 0.01 0.01 63 1012.8
20260905032126 74 190 0.0 0.0 0.00 0.01 0.01 63 1012.7
20260905031816 74 181 0.0 0.0 0.00 0.01 0.01 63 1012.6
20260905031517 74 196 0.0 0.0 0.00 0.02 0.01 63 1012.6
20260905031217 74 184 0.0 0.0 0.00 0.02 0.01 63 1012.6
20260905030907 74 210 0.0 0.0 0.00 0.02 0.01 63 1012.5
20260905030604 74 210 0.0 0.0 0.00 0.02 0.01 63 1012.5
20260905030301 74 215 0.0 0.0 0.00 0.02 0.01 63 1012.4
20260905025953 74 215 0.0 0.0 0.00 0.02 0.01 63 1012.5
20260905025640 74 215 0.0 0.0 0.00 0.02 0.01 63 1012.6
20260905025327 74 215 0.0 0.0 0.00 0.02 0.01 63 1012.5
20260905025017 74 215 0.0 0.0 0.00 0.02 0.01 63 1012.5
20260905023833 74 215 0.0 0.0 0.00 0.02 0.01 63 1012.3
20260905023520 74 215 0.0 0.0 0.00 0.02 0.01 63 1012.4
20260905023223 74 215 0.0 0.0 0.00 0.02 0.01 63 1012.4
20260905022917 75 215 0.0 0.0 0.00 0.02 0.01 63 1012.4
20260905022619 75 215 0.0 0.0 0.00 0.02 0.01 63 1012.3
20260905022321 75 215 0.0 0.0 0.00 0.02 0.01 63 1012.3
20260905022020 75 205 0.0 0.0 0.00 0.02 0.01 63 1012.4
20260905021723 75 205 0.0 0.0 0.00 0.02 0.01 63 1012.2
20260905021422 75 225 0.0 0.0 0.00 0.02 0.01 63 1012.2
20260905021115 75 225 0.0 0.0 0.00 0.02 0.01 63 1012.1
20260905020809 75 225 0.0 0.0 0.00 0.02 0.01 63 1012.2
20260905020034 75 225 0.0 0.0 0.00 0.02 0.01 63 1012.2
20260905015737 75 225 0.0 0.0 0.00 0.04 0.01 63 1012.1
20260905015013 76 225 0.0 0.0 0.00 0.04 0.01 63 1012.3
20260905014241 76 225 0.0 0.0 0.00 0.04 0.01 63 1012.4
20260905013932 76 225 0.0 0.0 0.00 0.04 0.01 63 1012.4
20260905013623 76 225 0.0 0.0 0.00 0.05 0.01 63 1012.2
20260905013325 76 225 0.0 0.0 0.00 0.05 0.01 63 1012.2
20260905013014 76 225 0.0 0.0 0.00 0.05 0.01 63 1012.2
20260905012703 77 225 0.0 0.0 0.00 0.05 0.01 63 1012.2
20260905012350 77 225 0.0 0.0 0.00 0.06 0.01 63 1012.1
20260905011622 77 232 0.0 0.0 0.00 0.06 0.01 63 1012.1
20260905011311 77 232 0.0 0.0 0.00 0.06 0.01 63 1012.2
20260905010547 77 241 0.0 0.0 0.00 0.06 0.01 63 1012.1
20260905010243 77 241 0.0 0.0 0.00 0.06 0.01 63 1012.1
20260905005938 78 241 0.0 0.0 0.00 0.06 0.01 63 1012.1
20260905005625 78 241 0.0 0.0 0.00 0.06 0.01 63 1012.1
20260905005321 78 261 0.0 0.0 0.00 0.06 0.01 63 1012.1
20260905005016 78 261 0.0 0.0 0.00 0.06 0.01 63 1012.1
20260905004717 78 261 0.0 0.0 0.00 0.06 0.01 62 1012.1
20260905004406 78 260 0.0 0.0 0.00 0.06 0.01 62 1012.2
20260905004056 78 267 0.0 0.0 0.00 0.06 0.01 62 1012.2
20260905003743 78 267 0.0 0.0 0.00 0.06 0.01 62 1012.1
20260905003439 78 267 0.0 0.0 0.00 0.06 0.01 62 1012.2
20260905002700 79 267 0.0 0.0 0.00 0.06 0.01 62 1012.1
20260905002402 79 267 0.0 0.0 0.00 0.06 0.01 61 1011.9
20260905002052 79 267 0.0 0.0 0.00 0.06 0.01 61 1011.8
20260905001321 79 267 0.0 0.0 0.00 0.06 0.01 61 1011.8
20260905000555 80 267 0.0 0.0 0.00 0.06 0.01 60 1011.9
20260905000252 80 267 0.0 0.0 0.00 0.06 0.01 60 1011.8
20260904235954 80 267 0.0 0.0 0.00 0.06 0.01 60 1011.8
20260904235643 80 267 0.0 0.0 0.00 0.06 0.01 60 1011.9
20260904235340 80 267 0.0 0.0 0.00 0.06 0.01 60 1011.8
20260904235041 80 267 0.0 0.0 0.00 0.06 0.01 60 1011.7
20260904234731 80 295 0.0 0.0 0.00 0.06 0.01 60 1011.8
20260904234435 80 295 0.0 0.0 0.00 0.06 0.01 60 1011.8
20260904234124 80 289 0.0 0.0 0.00 0.06 0.01 60 1011.8
20260904233819 80 292 0.0 0.0 0.00 0.06 0.01 59 1011.7
20260904233043 81 242 0.0 0.0 0.00 0.06 0.01 59 1011.9
20260904231922 81 234 0.0 0.0 0.00 0.06 0.01 59 1011.7
20260904231621 81 302 0.0 0.0 0.00 0.06 0.01 59 1011.8
20260904231315 81 287 0.0 0.0 0.00 0.06 0.01 58 1011.8
20260904231006 81 287 0.0 2.0 0.00 0.06 0.01 58 1011.9
20260904230654 81 292 0.0 0.0 0.00 0.06 0.01 58 1011.9
20260904230347 81 266 0.0 0.0 0.00 0.06 0.01 58 1011.8
20260904230035 81 281 0.0 0.0 0.00 0.06 0.01 57 1011.8
20260904225723 82 281 0.0 0.0 0.00 0.06 0.01 57 1011.8
20260904225423 82 266 0.0 0.0 0.00 0.06 0.01 57 1011.9
20260904224701 82 284 0.0 5.0 0.00 0.06 0.01 56 1011.8
20260904224356 82 229 0.0 0.0 0.00 0.06 0.01 56 1011.8
20260904224044 82 229 0.0 0.0 0.00 0.06 0.01 56 1011.9
20260904223735 82 229 0.0 0.0 0.00 0.06 0.01 56 1011.8
20260904223429 83 277 0.0 1.0 0.00 0.06 0.01 55 1011.8
20260904222238 83 278 0.0 2.0 0.00 0.06 0.01 55 1011.9
20260904221925 83 304 0.0 2.0 0.00 0.06 0.01 54 1011.8
20260904221611 83 217 0.0 3.0 0.00 0.06 0.01 53 1011.7
20260904221313 83 322 0.0 3.0 0.00 0.06 0.01 54 1011.8
20260904221007 83 299 0.0 2.0 0.00 0.06 0.01 54 1011.8
20260904220700 84 288 0.0 0.0 0.00 0.06 0.01 53 1011.8
20260904220359 84 194 1.0 5.0 0.00 0.06 0.01 53 1011.8
20260904220055 84 277 1.0 5.0 0.00 0.06 0.01 52 1011.8
20260904215751 84 309 1.0 5.0 0.00 0.06 0.01 54 1011.7
20260904215449 84 342 1.0 5.0 0.00 0.06 0.01 53 1011.9
20260904215139 85 294 1.0 5.0 0.00 0.06 0.01 53 1011.9
20260904214826 85 44 1.0 5.0 0.00 0.06 0.01 53 1012.1
20260904214520 85 304 1.0 5.0 0.00 0.06 0.01 53 1012.0
20260904214221 85 5 1.0 4.0 0.00 0.06 0.01 52 1012.0
20260904213912 85 0 1.0 7.0 0.00 0.06 0.01 50 1012.2
20260904213606 85 53 1.0 7.0 0.00 0.06 0.01 52 1012.2
20260904213255 85 13 0.0 7.0 0.00 0.06 0.01 51 1012.3
20260904212956 85 291 1.0 7.0 0.00 0.06 0.01 51 1012.2
20260904212652 85 5 1.0 7.0 0.00 0.06 0.01 52 1012.3
20260904212344 85 248 2.0 7.0 0.00 0.06 0.01 52 1012.5
20260904212035 85 286 1.0 7.0 0.00 0.06 0.01 53 1012.4
20260904211731 85 312 1.0 4.0 0.00 0.06 0.01 52 1012.4
20260904211426 85 259 1.0 4.0 0.00 0.06 0.01 53 1012.4
20260904211117 85 0 0.0 4.0 0.00 0.06 0.01 51 1012.3
20260904205938 85 212 0.0 2.0 0.00 0.06 0.01 51 1012.3
20260904205634 85 215 0.0 2.0 0.00 0.06 0.01 51 1012.3
20260904205329 85 288 0.0 2.0 0.00 0.06 0.01 50 1012.3
20260904205016 86 302 0.0 2.0 0.00 0.06 0.01 51 1012.2
20260904204711 86 80 1.0 7.0 0.00 0.06 0.01 50 1012.1
20260904204408 86 178 1.0 7.0 0.00 0.06 0.01 48 1012.2
20260904203649 87 350 2.0 7.0 0.00 0.06 0.01 47 1012.2
20260904203344 87 334 2.0 6.0 0.00 0.06 0.01 50 1012.1
20260904203046 87 270 1.0 7.0 0.00 0.06 0.01 48 1012.1
20260904202741 87 274 1.0 7.0 0.00 0.06 0.01 50 1012.1
20260904202428 87 63 1.0 7.0 0.00 0.06 0.01 49 1012.1
20260904202121 87 66 2.0 7.0 0.00 0.06 0.01 50 1012.2
20260904201810 87 118 2.0 7.0 0.00 0.06 0.01 51 1012.3
20260904201457 87 295 2.0 7.0 0.00 0.06 0.01 50 1012.4
20260904201150 86 270 2.0 4.0 0.00 0.06 0.01 49 1012.5
20260904200427 87 24 1.0 4.0 0.00 0.06 0.01 49 1012.4
20260904200121 87 309 0.0 4.0 0.00 0.06 0.01 50 1012.4
20260904195820 87 316 1.0 4.0 0.00 0.06 0.01 48 1012.4
20260904195054 87 19 1.0 4.0 0.00 0.06 0.01 47 1012.4
20260904194741 87 80 1.0 4.0 0.00 0.06 0.01 49 1012.4
20260904194445 87 172 0.0 3.0 0.00 0.06 0.01 51 1012.4
20260904193729 86 92 1.0 3.0 0.00 0.06 0.01 47 1012.6
20260904193417 86 315 1.0 3.0 0.00 0.06 0.01 48 1012.7
20260904192700 86 25 0.0 9.0 0.00 0.06 0.01 51 1012.6
20260904191930 86 13 1.0 9.0 0.00 0.06 0.01 49 1012.7
20260904191623 86 5 2.0 9.0 0.00 0.06 0.01 48 1012.8
20260904191324 86 317 1.0 9.0 0.00 0.06 0.01 49 1012.8
20260904191020 87 12 1.0 9.0 0.00 0.06 0.01 48 1012.8
20260904190720 87 315 1.0 9.0 0.00 0.06 0.01 49 1012.8
20260904190415 87 342 2.0 9.0 0.00 0.06 0.01 48 1012.8
20260904190109 87 297 2.0 9.0 0.00 0.06 0.01 48 1013.0
20260904185801 87 298 2.0 9.0 0.00 0.06 0.01 46 1012.8
20260904185457 87 74 2.0 8.0 0.00 0.06 0.01 48 1013.1
20260904185146 87 275 2.0 6.0 0.00 0.06 0.01 48 1013.1
20260904184423 86 309 1.0 6.0 0.00 0.06 0.01 52 1013.4
20260904183642 86 342 1.0 4.0 0.00 0.06 0.01 51 1013.5
20260904183345 86 294 1.0 9.0 0.00 0.06 0.01 50 1013.6
20260904182207 86 288 3.0 9.0 0.00 0.06 0.01 48 1013.9
20260904181857 86 263 3.0 9.0 0.00 0.06 0.01 50 1014.0
20260904181544 87 276 2.0 9.0 0.00 0.06 0.01 48 1014.0
20260904181237 87 202 2.0 9.0 0.00 0.06 0.01 47 1014.0
20260904180934 87 313 2.0 10.0 0.00 0.06 0.01 47 1014.1
20260904180209 88 344 2.0 10.0 0.00 0.06 0.01 48 1014.1
20260904175901 88 304 3.0 10.0 0.00 0.06 0.01 47 1014.0
20260904175142 87 274 1.0 10.0 0.00 0.06 0.01 47 1014.2
20260904174843 87 273 0.0 6.0 0.00 0.06 0.01 50 1014.2
20260904174547 87 70 0.0 6.0 0.00 0.06 0.01 51 1014.3
20260904174247 87 203 1.0 6.0 0.00 0.06 0.01 48 1014.2
20260904173936 87 192 2.0 6.0 0.00 0.06 0.01 47 1014.2
20260904173626 87 279 2.0 6.0 0.00 0.06 0.01 48 1014.2
20260904173321 87 291 2.0 6.0 0.00 0.06 0.01 48 1014.2
20260904173021 87 281 1.0 7.0 0.00 0.06 0.01 51 1014.3
20260904172712 87 182 1.0 7.0 0.00 0.06 0.01 52 1014.2
20260904172359 87 302 1.0 7.0 0.00 0.06 0.01 52 1014.2
20260904172052 86 256 1.0 8.0 0.00 0.06 0.01 52 1014.2
20260904171754 86 152 1.0 8.0 0.00 0.06 0.01 51 1014.2
20260904171443 86 104 1.0 8.0 0.00 0.06 0.01 52 1014.3
20260904171129 86 322 1.0 8.0 0.00 0.06 0.01 53 1014.2
20260904170817 86 267 2.0 8.0 0.00 0.06 0.01 50 1014.3
20260904170515 86 311 2.0 8.0 0.00 0.06 0.01 52 1014.3
20260904170200 86 292 1.0 7.0 0.00 0.06 0.01 54 1014.3
20260904165430 86 315 2.0 5.0 0.00 0.06 0.01 52 1014.3
20260904165118 85 325 2.0 7.0 0.00 0.06 0.01 53 1014.3
20260904164815 85 337 2.0 7.0 0.00 0.06 0.01 52 1014.4
20260904164514 85 5 2.0 7.0 0.00 0.06 0.01 54 1014.5
20260904164206 85 336 1.0 7.0 0.00 0.06 0.01 54 1014.4
20260904163906 85 202 1.0 7.0 0.00 0.06 0.01 55 1014.5
20260904163148 85 317 1.0 9.0 0.00 0.06 0.01 55 1014.5
20260904162837 84 334 2.0 9.0 0.00 0.06 0.01 57 1014.5
20260904162536 84 291 2.0 9.0 0.00 0.06 0.01 55 1014.6
20260904162237 84 284 3.0 9.0 0.00 0.06 0.01 57 1014.5
20260904161937 83 309 3.0 12.0 0.00 0.06 0.01 56 1014.6
20260904161623 83 286 3.0 12.0 0.00 0.06 0.01 56 1014.7
20260904161318 83 317 3.0 12.0 0.00 0.06 0.01 57 1014.8
20260904161019 83 266 4.0 12.0 0.00 0.06 0.01 57 1014.8
20260904160709 82 327 3.0 12.0 0.00 0.06 0.01 58 1014.8
20260904160401 82 257 3.0 12.0 0.00 0.06 0.01 56 1014.8
20260904160052 82 337 2.0 8.0 0.00 0.06 0.01 57 1014.8
20260904155752 82 166 2.0 7.0 0.00 0.06 0.01 57 1014.7
20260904155442 82 311 2.0 7.0 0.00 0.06 0.01 58 1014.8
20260904155141 81 332 2.0 7.0 0.00 0.06 0.01 58 1014.8
20260904154828 81 282 2.0 7.0 0.00 0.06 0.01 59 1014.8
20260904154525 81 259 1.0 6.0 0.00 0.06 0.01 60 1014.7
20260904154228 81 5 1.0 6.0 0.00 0.06 0.01 60 1014.8
20260904153932 80 246 2.0 6.0 0.00 0.06 0.01 59 1014.8
20260904153626 80 318 1.0 5.0 0.00 0.06 0.01 61 1014.8
20260904153326 80 248 1.0 5.0 0.00 0.06 0.01 61 1014.8
20260904153017 79 251 1.0 4.0 0.00 0.06 0.01 62 1014.8
20260904152707 79 276 1.0 0.0 0.00 0.06 0.01 60 1014.8
20260904152404 79 5 2.0 8.0 0.00 0.06 0.01 62 1014.7
20260904152052 79 13 2.0 8.0 0.00 0.06 0.01 63 1014.8
20260904151331 78 298 2.0 8.0 0.00 0.06 0.01 64 1014.8
20260904151017 78 188 2.0 8.0 0.00 0.06 0.01 64 1014.7
20260904150244 77 258 3.0 8.0 0.00 0.06 0.01 64 1014.7
20260904145948 77 338 2.0 8.0 0.00 0.06 0.01 65 1014.8
20260904145642 77 234 2.0 8.0 0.00 0.06 0.01 66 1014.7
20260904145337 77 209 1.0 8.0 0.00 0.06 0.01 67 1014.9
20260904145037 76 290 2.0 8.0 0.00 0.06 0.01 67 1014.8
20260904144733 76 147 2.0 8.0 0.00 0.06 0.01 68 1014.9
20260904144421 76 309 2.0 6.0 0.00 0.06 0.01 68 1014.7
20260904144120 76 282 2.0 6.0 0.00 0.06 0.01 68 1014.9
20260904143355 75 281 1.0 6.0 0.00 0.07 0.01 69 1015.2
20260904143045 75 256 1.0 6.0 0.00 0.08 0.01 69 1015.2
20260904142733 75 292 2.0 6.0 0.00 0.08 0.01 69 1015.1
20260904142422 75 163 2.0 6.0 0.00 0.09 0.01 69 1015.0
20260904142120 75 42 2.0 8.0 0.00 0.10 0.01 69 1014.9
20260904141824 75 184 2.0 8.0 0.00 0.10 0.01 70 1015.0
20260904141522 75 287 1.0 8.0 0.00 0.11 0.01 70 1014.8
20260904141215 75 24 1.0 8.0 0.00 0.11 0.01 70 1014.9
20260904140902 74 330 2.0 8.0 0.00 0.12 0.01 70 1014.8
20260904140550 74 240 2.0 8.0 0.00 0.12 0.01 70 1014.9
20260904140244 74 266 2.0 8.0 0.00 0.12 0.01 70 1014.9
20260904135933 74 307 2.0 6.0 0.00 0.12 0.01 71 1014.9
20260904135626 74 327 1.0 6.0 0.00 0.12 0.01 71 1014.9
20260904135313 74 271 2.0 6.0 0.00 0.12 0.01 71 1014.8
20260904135003 74 18 1.0 8.0 0.00 0.12 0.01 71 1014.8
20260904134655 73 340 1.0 8.0 0.00 0.12 0.01 71 1014.8
20260904134345 73 57 2.0 8.0 0.00 0.12 0.01 72 1014.9
20260904133604 73 36 2.0 8.0 0.00 0.12 0.01 72 1015.1
20260904132839 72 325 1.0 6.0 0.00 0.12 0.01 73 1015.0
20260904132532 72 292 2.0 6.0 0.00 0.12 0.01 73 1015.0
20260904132228 72 13 2.0 6.0 0.00 0.12 0.01 73 1014.9
20260904131928 72 342 2.0 6.0 0.00 0.12 0.01 74 1015.0
20260904131624 72 276 2.0 6.0 0.00 0.12 0.01 74 1014.8
20260904131324 72 306 2.0 5.0 0.00 0.12 0.01 74 1014.9
20260904131022 71 5 2.0 5.0 0.00 0.12 0.01 74 1014.9